FW6720 Weather Reports


Display with metric or nautical units.
time (UTC)temp
F
wind
direction
speed
MPH
gust
MPH
rain 1hr
in
rain 24hr
in
rain mn
in
humidity
%
barometer
mb
20260906051941 52 60 0.0 0.0 0.00 0.01 0.01 98 1018.4
20260906051436 52 60 0.0 0.0 0.00 0.01 0.01 98 1018.6
20260906050931 52 60 0.0 0.0 0.00 0.01 0.01 98 1018.2
20260906050431 52 60 0.0 0.0 0.00 0.01 0.01 97 1018.6
20260906045930 52 60 0.0 0.0 0.00 0.01 0.01 97 1018.5
20260906045429 52 60 0.0 0.0 0.00 0.01 0.01 97 1018.5
20260906044926 53 60 0.0 0.0 0.00 0.01 0.01 97 1018.6
20260906044420 53 60 0.0 0.0 0.00 0.01 0.01 97 1018.5
20260906043915 53 60 0.0 0.0 0.00 0.01 0.01 97 1018.6
20260906043411 53 60 0.0 0.0 0.00 0.01 0.01 97 1018.5
20260906042907 53 60 0.0 0.0 0.00 0.01 0.01 96 1018.6
20260906042405 53 60 0.0 0.0 0.00 0.01 0.01 96 1018.7
20260906041901 53 60 0.0 0.0 0.00 0.01 0.01 96 1018.5
20260906041356 53 60 0.0 0.0 0.00 0.01 0.01 95 1018.8
20260906040851 53 60 0.0 0.0 0.00 0.01 0.01 94 1018.7
20260906040346 54 60 0.0 0.0 0.00 0.01 0.01 94 1018.5
20260906035842 54 60 0.0 0.0 0.00 0.01 0.01 94 1018.4
20260906035337 54 60 0.0 0.0 0.00 0.01 0.01 93 1018.4
20260906034832 54 60 0.0 0.0 0.00 0.01 0.01 92 1018.3
20260906034327 55 60 0.0 0.0 0.00 0.01 0.01 92 1018.4
20260906033823 55 60 0.0 0.0 0.00 0.01 0.01 92 1018.4
20260906033322 55 60 0.0 0.0 0.00 0.01 0.01 91 1018.4
20260906032818 55 60 0.0 0.0 0.00 0.01 0.01 90 1018.3
20260906032314 55 60 0.0 0.0 0.00 0.01 0.01 90 1018.4
20260906031809 56 60 0.0 0.0 0.00 0.01 0.01 90 1018.4
20260906031305 56 60 0.0 0.0 0.00 0.01 0.01 90 1018.2
20260906030804 56 60 0.0 0.0 0.00 0.01 0.01 90 1018.3
20260906030259 56 60 0.0 0.0 0.00 0.01 0.01 90 1018.3
20260906025759 56 60 0.0 0.0 0.00 0.01 0.01 90 1018.4
20260906025253 56 60 0.0 0.0 0.00 0.01 0.01 90 1018.1
20260906024752 56 60 0.0 0.0 0.00 0.01 0.01 91 1018.2
20260906024251 56 60 0.0 0.0 0.00 0.01 0.01 90 1018.2
20260906023747 57 60 0.0 0.0 0.00 0.01 0.01 90 1018.2
20260906023242 57 60 0.0 0.0 0.00 0.01 0.01 89 1018.1
20260906022738 57 59 0.0 0.0 0.00 0.01 0.01 89 1018.0
20260906022233 57 59 0.0 0.0 0.00 0.01 0.01 89 1018.2
20260906021729 57 59 0.0 0.0 0.00 0.01 0.01 89 1018.1
20260906021228 57 59 0.0 0.0 0.00 0.01 0.01 89 1018.0
20260906020723 57 59 0.0 0.0 0.00 0.01 0.01 88 1017.7
20260906020217 57 59 0.0 0.0 0.00 0.01 0.01 87 1017.9
20260906015712 58 59 0.0 0.0 0.00 0.01 0.01 87 1017.7
20260906015210 58 59 0.0 0.0 0.00 0.01 0.01 87 1018.0
20260906014705 58 59 0.0 0.0 0.00 0.01 0.01 87 1018.1
20260906014201 58 59 0.0 0.0 0.00 0.01 0.01 86 1017.9
20260906013657 58 59 0.0 0.0 0.00 0.01 0.01 86 1018.0
20260906013152 58 59 0.0 0.0 0.00 0.01 0.01 85 1017.9
20260906012652 59 59 0.0 0.0 0.00 0.01 0.01 85 1017.9
20260906012151 59 59 0.0 0.0 0.00 0.01 0.01 85 1017.9
20260906011648 59 59 0.0 0.0 0.00 0.01 0.01 84 1017.9
20260906011142 59 59 0.0 0.0 0.00 0.01 0.01 84 1017.9
20260906010637 59 59 0.0 0.0 0.00 0.01 0.01 84 1017.9
20260906010134 60 59 0.0 0.0 0.00 0.01 0.01 84 1018.1
20260906005633 60 59 0.0 0.0 0.00 0.01 0.01 83 1018.0
20260906005132 60 59 0.0 0.0 0.00 0.01 0.01 82 1018.0
20260906004632 61 59 0.0 0.0 0.00 0.01 0.01 82 1017.5
20260906004127 61 59 0.0 0.0 0.00 0.01 0.01 81 1017.7
20260906003622 61 59 0.0 0.0 0.00 0.01 0.01 81 1017.7
20260906003118 61 59 0.0 0.0 0.00 0.01 0.01 82 1017.7
20260906002612 60 59 0.0 0.0 0.00 0.01 0.01 82 1017.5
20260906002107 60 59 0.0 0.0 0.00 0.01 0.01 83 1017.7
20260906001602 60 59 0.0 0.0 0.00 0.01 0.01 82 1017.7
20260906001057 60 59 0.0 0.0 0.00 0.01 0.01 83 1017.6
20260906000553 60 59 0.0 0.0 0.00 0.01 0.01 82 1018.0
20260906000048 61 59 0.0 0.0 0.00 0.01 0.01 81 1017.6
20260905235547 61 59 0.0 0.0 0.00 0.01 0.01 80 1017.5
20260905235042 62 59 0.0 0.0 0.00 0.01 0.01 78 1017.9
20260905234538 62 59 0.0 0.0 0.00 0.01 0.01 75 1017.6
20260905234033 63 59 0.0 0.0 0.00 0.01 0.01 75 1017.6
20260905233532 63 59 0.0 0.0 0.00 0.01 0.01 73 1018.0
20260905233032 63 59 0.0 0.0 0.00 0.01 0.01 75 1017.9
20260905232528 64 59 0.0 0.0 0.00 0.01 0.01 71 1017.7
20260905232024 64 59 0.0 0.0 0.00 0.01 0.01 69 1018.0
20260905231519 66 59 0.0 0.0 0.00 0.01 0.01 70 1017.7
20260905231015 66 59 0.0 0.0 0.00 0.01 0.01 61 1017.7
20260905230514 66 59 0.0 0.0 0.00 0.01 0.01 60 1018.1
20260905230013 66 60 0.0 0.0 0.00 0.01 0.01 61 1018.0
20260905225507 67 59 0.0 0.0 0.00 0.01 0.01 68 1018.1
20260905225003 66 60 1.0 1.0 0.00 0.01 0.01 59 1018.0
20260905224457 66 59 0.0 0.0 0.00 0.01 0.01 68 1018.2
20260905223956 65 59 0.0 0.0 0.00 0.01 0.01 69 1018.1
20260905223454 64 60 0.0 0.0 0.00 0.01 0.01 73 1018.1
20260905222949 64 60 0.0 0.0 0.00 0.01 0.01 72 1018.2
20260905222444 65 60 0.0 0.0 0.00 0.01 0.01 69 1018.3
20260905221939 65 60 0.0 0.0 0.00 0.01 0.01 65 1018.2
20260905221436 67 60 0.0 0.0 0.00 0.01 0.01 62 1018.2
20260905220932 68 61 0.0 0.0 0.00 0.01 0.01 58 1018.6
20260905220428 67 62 0.0 0.0 0.00 0.01 0.01 59 1018.5
20260905215926 66 61 0.0 0.0 0.00 0.01 0.01 59 1018.4
20260905215422 67 61 0.0 0.0 0.00 0.01 0.01 59 1018.7
20260905214919 67 63 0.0 0.0 0.00 0.01 0.01 62 1018.6
20260905214414 68 55 0.0 0.0 0.00 0.01 0.01 63 1018.5
20260905213914 67 54 0.0 0.0 0.00 0.01 0.01 59 1018.7
20260905213410 67 54 0.0 0.0 0.00 0.01 0.01 60 1018.7
20260905212905 66 54 0.0 0.0 0.00 0.01 0.01 63 1018.6
20260905212401 66 34 0.0 0.0 0.00 0.01 0.01 63 1018.8
20260905211859 65 36 0.0 0.0 0.00 0.01 0.01 66 1018.7
20260905211355 65 36 0.0 0.0 0.00 0.01 0.01 64 1018.8
20260905210851 66 36 0.0 0.0 0.00 0.01 0.01 59 1018.9
20260905210351 65 57 0.0 0.0 0.00 0.01 0.01 62 1018.7
20260905205850 65 58 0.0 0.0 0.00 0.01 0.01 61 1018.8
20260905205345 66 63 0.0 0.0 0.00 0.01 0.01 62 1018.9
20260905204844 65 16 0.0 0.0 0.00 0.01 0.01 65 1018.8
20260905204340 65 15 0.0 0.0 0.00 0.01 0.01 67 1018.9
20260905203839 65 15 0.0 0.0 0.00 0.01 0.01 68 1019.1
20260905203335 64 16 0.0 0.0 0.00 0.01 0.01 69 1019.1
20260905202831 63 16 0.0 0.0 0.00 0.01 0.01 67 1019.0
20260905202325 63 15 0.0 0.0 0.00 0.01 0.01 68 1019.1
20260905201821 62 15 0.0 0.0 0.00 0.01 0.01 73 1019.3
20260905201316 63 14 0.0 0.0 0.00 0.01 0.01 72 1019.3
20260905200810 62 14 0.0 0.0 0.00 0.01 0.01 71 1019.2
20260905200307 62 14 0.0 0.0 0.00 0.01 0.01 74 1019.4
20260905195804 62 14 0.0 0.0 0.00 0.01 0.01 73 1019.2
20260905195259 62 14 0.0 0.0 0.00 0.01 0.01 70 1019.3
20260905194755 63 14 0.0 0.0 0.00 0.01 0.01 71 1019.2
20260905194255 63 14 0.0 0.0 0.00 0.01 0.01 73 1019.2
20260905193754 63 15 0.0 1.0 0.00 0.01 0.01 68 1019.2
20260905193249 64 14 0.0 0.0 0.00 0.01 0.01 72 1019.3
20260905192744 63 14 0.0 0.0 0.00 0.01 0.01 70 1019.3
20260905192241 64 28 0.0 0.0 0.00 0.01 0.01 70 1019.3
20260905191740 63 61 0.0 0.0 0.00 0.01 0.01 70 1019.3
20260905191239 62 60 0.0 0.0 0.00 0.01 0.01 77 1019.4
20260905190737 63 61 0.0 1.0 0.00 0.01 0.01 71 1019.2
20260905190236 63 60 0.0 1.0 0.00 0.01 0.01 71 1019.5
20260905185735 63 44 0.0 0.0 0.00 0.01 0.01 75 1019.3
20260905185230 63 44 0.0 0.0 0.00 0.01 0.01 74 1019.3
20260905184725 63 43 0.0 0.0 0.00 0.01 0.01 80 1019.4
20260905184224 62 42 0.0 0.0 0.00 0.01 0.01 79 1019.5
20260905183723 62 42 0.0 0.0 0.00 0.01 0.01 79 1019.5
20260905183219 61 42 0.0 0.0 0.00 0.01 0.01 79 1019.5
20260905182719 60 58 0.0 0.0 0.00 0.01 0.01 85 1019.6
20260905182218 59 57 0.0 0.0 0.00 0.01 0.01 89 1019.8
20260905181714 59 57 0.0 0.0 0.00 0.01 0.01 88 1019.6
20260905181213 59 57 0.0 0.0 0.00 0.01 0.01 89 1019.7
20260905180707 59 57 0.0 0.0 0.00 0.01 0.01 89 1019.6
20260905180203 59 57 0.0 0.0 0.00 0.01 0.01 90 1019.6
20260905175702 59 57 0.0 0.0 0.00 0.01 0.01 87 1019.7
20260905175157 59 57 0.0 0.0 0.00 0.01 0.01 88 1019.6
20260905174653 59 57 0.0 0.0 0.00 0.01 0.01 90 1019.6
20260905174148 59 57 0.0 0.0 0.00 0.01 0.01 89 1019.5
20260905173644 59 57 0.0 0.0 0.00 0.01 0.01 88 1019.6
20260905173139 59 57 0.0 0.0 0.00 0.01 0.01 87 1019.6
20260905172638 59 58 0.0 0.0 0.00 0.01 0.01 89 1019.6
20260905172133 59 57 0.0 0.0 0.00 0.01 0.01 91 1019.6
20260905171630 58 57 0.0 0.0 0.05 0.01 0.01 92 1019.6
20260905171125 58 57 0.0 0.0 0.05 0.01 0.01 92 1019.4
20260905170622 58 57 0.0 0.0 0.00 0.00 0.00 93 1019.7
20260905170117 58 57 0.0 0.0 0.00 0.00 0.00 92 1019.5
20260905165617 58 57 0.0 0.0 0.00 0.00 0.00 93 1019.6
20260905165112 58 57 0.0 0.0 0.00 0.00 0.00 95 1019.6
20260905164602 57 57 0.0 0.0 0.00 0.00 0.00 95 1019.4
20260905164101 57 58 0.0 0.0 0.00 0.00 0.00 96 1019.5
20260905163557 56 58 0.0 0.0 0.00 0.00 0.00 97 1019.5
20260905163054 55 57 0.0 0.0 0.00 0.00 0.00 97 1019.5
20260905162550 55 57 0.0 0.0 0.00 0.00 0.00 97 1019.4
20260905162049 55 57 0.0 0.0 0.00 0.00 0.00 97 1019.5
20260905161549 55 57 0.0 0.0 0.00 0.00 0.00 97 1019.4
20260905161047 55 57 0.0 0.0 0.00 0.00 0.00 97 1019.5
20260905160545 55 57 0.0 0.0 0.00 0.00 0.00 98 1019.5
20260905160040 55 57 0.0 0.0 0.00 0.00 0.00 98 1019.5
20260905155540 55 57 0.0 0.0 0.00 0.00 0.00 98 1019.5
20260905155038 54 57 0.0 0.0 0.00 0.00 0.00 98 1019.8
20260905154533 54 57 0.0 0.0 0.00 0.00 0.00 98 1019.5
20260905154029 54 57 0.0 0.0 0.00 0.00 0.00 98 1019.6
20260905153525 54 57 0.0 0.0 0.00 0.00 0.00 98 1019.6
20260905153025 54 57 0.0 0.0 0.00 0.00 0.00 98 1019.7
20260905152519 53 57 0.0 0.0 0.00 0.00 0.00 98 1019.6
20260905152015 53 57 0.0 0.0 0.00 0.00 0.00 98 1019.6
20260905151510 53 57 0.0 0.0 0.00 0.00 0.00 98 1019.5
20260905151005 53 57 0.0 0.0 0.00 0.00 0.00 98 1019.3
20260905150500 53 57 0.0 0.0 0.00 0.00 0.00 98 1019.5
20260905145956 53 57 0.0 0.0 0.00 0.00 0.00 99 1019.6
20260905145451 53 57 0.0 0.0 0.00 0.00 0.00 99 1019.4
20260905144950 52 57 0.0 0.0 0.00 0.00 0.00 99 1019.5
20260905144446 52 57 0.0 0.0 0.00 0.00 0.00 99 1019.3
20260905143945 52 57 0.0 0.0 0.00 0.00 0.00 99 1019.3
20260905143444 52 57 0.0 0.0 0.00 0.00 0.00 99 1019.5
20260905142939 52 57 0.0 0.0 0.00 0.00 0.00 98 1019.4
20260905142438 52 57 0.0 0.0 0.00 0.00 0.00 99 1019.6
20260905141933 52 57 0.0 0.0 0.00 0.00 0.00 99 1019.2
20260905141428 51 57 0.0 0.0 0.00 0.00 0.00 99 1019.2
20260905140924 51 57 0.0 0.0 0.00 0.00 0.00 99 1019.3
20260905140419 51 57 0.0 0.0 0.00 0.00 0.00 99 1019.3
20260905135918 51 57 0.0 0.0 0.00 0.00 0.00 99 1019.4
20260905135414 51 57 0.0 0.0 0.00 0.00 0.00 99 1019.3
20260905134909 51 57 0.0 0.0 0.00 0.00 0.00 99 1019.1
20260905134408 51 57 0.0 0.0 0.00 0.00 0.00 99 1019.1
20260905133903 51 58 0.0 0.0 0.00 0.00 0.00 99 1019.3
20260905133358 51 58 0.0 0.0 0.00 0.00 0.00 99 1019.2
20260905132857 51 58 0.0 0.0 0.00 0.00 0.00 99 1019.0
20260905132353 51 58 0.0 0.0 0.00 0.00 0.00 99 1019.2
20260905131852 51 58 0.0 0.0 0.00 0.00 0.00 99 1019.2
20260905131348 51 58 0.0 0.0 0.00 0.00 0.00 99 1019.2
20260905130843 51 58 0.0 0.0 0.00 0.00 0.00 99 1019.2
20260905130342 51 58 0.0 0.0 0.00 0.00 0.00 99 1019.1
20260905125837 51 58 0.0 0.0 0.00 0.00 0.00 98 1019.2
20260905125332 51 58 0.0 0.0 0.00 0.00 0.00 98 1019.1
20260905124828 51 58 0.0 0.0 0.00 0.00 0.00 99 1018.9
20260905124325 51 58 0.0 0.0 0.00 0.00 0.00 99 1019.0
20260905123824 50 58 0.0 0.0 0.00 0.00 0.00 99 1019.3
20260905123321 50 58 0.0 0.0 0.00 0.00 0.00 98 1019.1
20260905122821 50 58 0.0 0.0 0.00 0.00 0.00 98 1019.0
20260905122320 51 58 0.0 0.0 0.00 0.00 0.00 99 1019.1
20260905121816 50 58 0.0 0.0 0.00 0.00 0.00 99 1019.1
20260905121313 50 58 0.0 0.0 0.00 0.00 0.00 99 1018.9
20260905120811 50 58 0.0 0.0 0.00 0.00 0.00 98 1019.0
20260905120306 50 58 0.0 0.0 0.00 0.00 0.00 99 1019.1
20260905115801 50 58 0.0 0.0 0.00 0.00 0.00 99 1019.0
20260905115300 50 58 0.0 0.0 0.00 0.00 0.00 99 1019.0
20260905114759 50 58 0.0 0.0 0.00 0.00 0.00 99 1018.8
20260905114259 50 58 0.0 0.0 0.00 0.00 0.00 99 1018.9
20260905113758 50 58 0.0 0.0 0.00 0.00 0.00 99 1018.8
20260905113249 50 58 0.0 0.0 0.00 0.00 0.00 99 1018.8
20260905112744 50 58 0.0 0.0 0.00 0.00 0.00 99 1018.8
20260905112244 50 58 0.0 0.0 0.00 0.00 0.00 99 1018.8
20260905111739 50 58 0.0 0.0 0.00 0.00 0.00 99 1018.9
20260905111233 50 58 0.0 0.0 0.00 0.00 0.00 98 1019.0
20260905110732 50 58 0.0 0.0 0.00 0.00 0.00 99 1019.0
20260905110227 50 58 0.0 0.0 0.00 0.00 0.00 99 1018.7
20260905105722 50 58 0.0 0.0 0.00 0.00 0.00 99 1018.9
20260905105221 50 58 0.0 0.0 0.00 0.00 0.00 99 1019.0
20260905104716 50 58 0.0 0.0 0.00 0.00 0.00 99 1018.8
20260905104212 49 58 0.0 0.0 0.00 0.00 0.00 99 1018.9
20260905103707 49 58 0.0 0.0 0.00 0.00 0.00 99 1019.0
20260905103203 49 58 0.0 0.0 0.00 0.00 0.00 99 1018.9
20260905102658 49 58 0.0 0.0 0.00 0.00 0.00 99 1018.8
20260905102155 49 58 0.0 0.0 0.00 0.00 0.00 99 1018.9
20260905101653 49 58 0.0 0.0 0.00 0.00 0.00 99 1019.1
20260905101152 49 58 0.0 0.0 0.00 0.00 0.00 99 1018.9
20260905100648 49 58 0.0 0.0 0.00 0.00 0.00 99 1019.0
20260905100143 49 58 0.0 0.0 0.00 0.00 0.00 99 1019.0
20260905095642 49 58 0.0 0.0 0.00 0.00 0.00 98 1019.0
20260905095137 49 58 0.0 0.0 0.00 0.00 0.00 98 1018.9
20260905094632 49 58 0.0 0.0 0.00 0.00 0.00 99 1018.9
20260905094131 49 58 0.0 0.0 0.00 0.00 0.00 99 1018.9
20260905093626 49 58 0.0 0.0 0.00 0.00 0.00 99 1019.1
20260905093123 48 58 0.0 0.0 0.00 0.00 0.00 99 1018.9
20260905092622 48 58 0.0 0.0 0.00 0.00 0.00 99 1018.8
20260905092119 48 58 0.0 0.0 0.00 0.00 0.00 99 1018.9
20260905091618 48 58 0.0 0.0 0.00 0.00 0.00 99 1018.9
20260905091112 48 58 0.0 0.0 0.00 0.00 0.00 98 1019.0
20260905090612 48 58 0.0 0.0 0.00 0.00 0.00 98 1018.7
20260905090108 48 58 0.0 0.0 0.00 0.00 0.00 98 1018.8
20260905085606 48 58 0.0 0.0 0.00 0.00 0.00 98 1018.8
20260905085103 48 58 0.0 0.0 0.00 0.00 0.00 98 1018.8
20260905084601 48 58 0.0 0.0 0.00 0.00 0.00 98 1018.8
20260905084057 48 58 0.0 0.0 0.00 0.00 0.00 98 1018.7
20260905083557 48 58 0.0 0.0 0.00 0.00 0.00 98 1018.7
20260905083054 48 58 0.0 0.0 0.00 0.00 0.00 98 1018.9
20260905082549 48 58 0.0 0.0 0.00 0.00 0.00 98 1018.6
20260905082045 47 58 0.0 0.0 0.00 0.00 0.00 98 1018.7
20260905081544 48 58 0.0 0.0 0.00 0.00 0.00 98 1018.7
20260905081039 48 58 0.0 0.0 0.00 0.00 0.00 98 1018.8
20260905080538 48 58 0.0 0.0 0.00 0.00 0.00 98 1018.5
20260905080034 48 58 0.0 0.0 0.00 0.00 0.00 98 1018.6
20260905075526 48 58 0.0 0.0 0.00 0.00 0.00 98 1018.7
20260905075021 48 58 0.0 0.0 0.00 0.00 0.00 98 1018.8
20260905074515 48 58 0.0 0.0 0.00 0.00 0.00 98 1018.6
20260905074011 48 58 0.0 0.0 0.00 0.00 0.00 98 1018.4
20260905073506 48 58 0.0 0.0 0.00 0.00 0.00 98 1018.3
20260905073001 48 58 0.0 0.0 0.00 0.00 0.00 98 1018.5
20260905072456 48 58 0.0 0.0 0.00 0.00 0.00 98 1018.4
20260905071951 48 58 0.0 0.0 0.00 0.00 0.00 98 1018.6
20260905071449 48 58 0.0 0.0 0.00 0.00 0.00 98 1018.4
20260905070948 48 58 0.0 0.0 0.00 0.00 0.00 98 1018.5
20260905070444 48 58 0.0 0.0 0.00 0.00 0.00 98 1018.5
20260905065944 48 58 0.0 0.0 0.00 0.09 0.09 98 1018.2
20260905065442 49 58 0.0 0.0 0.00 0.09 0.09 98 1018.3
20260905064938 49 58 0.0 0.0 0.00 0.09 0.09 98 1018.3
20260905064438 49 58 0.0 0.0 0.00 0.09 0.09 98 1018.3
20260905063932 49 58 0.0 0.0 0.00 0.09 0.09 98 1018.1
20260905063428 49 58 0.0 0.0 0.00 0.09 0.09 98 1018.1
20260905062924 49 58 0.0 0.0 0.00 0.09 0.09 98 1018.1
20260905062418 50 58 0.0 0.0 0.00 0.09 0.09 98 1018.0
20260905061913 50 58 0.0 0.0 0.00 0.09 0.09 98 1018.1
20260905061413 50 58 0.0 0.0 0.00 0.09 0.09 98 1018.0
20260905060912 50 58 0.0 0.0 0.00 0.09 0.09 98 1018.1
20260905060409 50 58 0.0 0.0 0.00 0.09 0.09 98 1018.2
20260905055908 50 58 0.0 0.0 0.00 0.09 0.09 98 1018.1
20260905055403 50 58 0.0 0.0 0.00 0.09 0.09 98 1018.1
20260905054903 50 58 0.0 0.0 0.00 0.09 0.09 98 1018.2
20260905054359 50 58 0.0 0.0 0.00 0.09 0.09 98 1018.1
20260905053858 50 58 0.0 0.0 0.00 0.09 0.09 98 1018.0
20260905053353 51 58 0.0 0.0 0.00 0.09 0.09 98 1018.1
20260905052849 51 58 0.0 0.0 0.00 0.09 0.09 98 1018.2
20260905052348 51 58 0.0 0.0 0.00 0.09 0.09 98 1018.0